Hourly Weather Rus'ki Komarivtsi

Today, 23 April, Friday

Time Temperature Precipitation Wind Pressure Humidity
00:00 +4°C° 0 mm 3 mps 752 mmHg 86%
01:00 +4°C° 0 mm 2 mps 752 mmHg 85%
02:00 +3°C° 0 mm 3 mps 752 mmHg 85%
03:00 +2°C° 0 mm 3 mps 752 mmHg 85%
04:00 +2°C° 0 mm 3 mps 752 mmHg 85%
05:00 +3°C° 0 mm 3 mps 753 mmHg 81%
06:00 +4°C° 0 mm 3 mps 753 mmHg 76%
07:00 +7°C° 0 mm 3 mps 754 mmHg 71%
08:00 +7°C° 0 mm 4 mps 754 mmHg 64%
09:00 +8°C° 0 mm 4 mps 754 mmHg 57%
10:00 +10°C° 0 mm 4 mps 754 mmHg 50%
11:00 +11°C° 0 mm 4 mps 754 mmHg 49%
12:00 +11°C° 0 mm 4 mps 754 mmHg 47%
13:00 +11°C° 0 mm 4 mps 754 mmHg 46%
14:00 +11°C° 0 mm 4 mps 754 mmHg 49%
15:00 +11°C° 0 mm 4 mps 754 mmHg 52%
16:00 +10°C° 0 mm 3 mps 754 mmHg 56%
17:00 +9°C° 0 mm 3 mps 755 mmHg 61%
18:00 +7°C° 0 mm 2 mps 755 mmHg 66%
19:00 +6°C° 0 mm 2 mps 755 mmHg 71%
20:00 +5°C° 0 mm 2 mps 756 mmHg 72%
21:00 +5°C° 0 mm 2 mps 756 mmHg 72%
22:00 +5°C° 0 mm 1 mps 756 mmHg 73%
23:00 +5°C° 0 mm 1 mps 756 mmHg 74%

Tomorrow, 24 April, Saturday

Time Temperature Precipitation Wind Pressure Humidity
00:00 +4°C° 0 mm 1 mps 756 mmHg 75%
01:00 +3°C° 0 mm 1 mps 756 mmHg 76%
02:00 +3°C° 0 mm 1 mps 756 mmHg 77%
03:00 +3°C° 0 mm 1 mps 756 mmHg 78%
04:00 +3°C° 0 mm 1 mps 756 mmHg 78%
05:00 +4°C° 0 mm 1 mps 756 mmHg 74%
06:00 +5°C° 0 mm 0 mps 756 mmHg 69%
07:00 +6°C° 0 mm 0 mps 757 mmHg 64%
08:00 +9°C° 0 mm 1 mps 756 mmHg 62%
09:00 +9°C° 0 mm 2 mps 756 mmHg 60%
10:00 +10°C° 0 mm 2 mps 756 mmHg 58%
11:00 +12°C° 0.1 mm 2 mps 756 mmHg 57%
12:00 +11°C° 0.1 mm 3 mps 756 mmHg 56%
13:00 +12°C° 0.1 mm 3 mps 755 mmHg 55%
14:00 +13°C° 0 mm 2 mps 755 mmHg 54%
15:00 +13°C° 0 mm 2 mps 755 mmHg 54%
16:00 +13°C° 0 mm 1 mps 754 mmHg 54%
17:00 +12°C° 0 mm 1 mps 754 mmHg 61%
18:00 +10°C° 0 mm 1 mps 754 mmHg 68%
19:00 +7°C° 0 mm 2 mps 754 mmHg 75%
20:00 +8°C° 0 mm 1 mps 754 mmHg 77%
21:00 +8°C° 0 mm 1 mps 754 mmHg 78%
22:00 +8°C° 0 mm 1 mps 754 mmHg 79%
23:00 +8°C° 0.1 mm 1 mps 754 mmHg 80%

Day after tomorrow, 25 April, Sunday

Time Temperature Precipitation Wind Pressure Humidity
00:00 +8°C° 0.1 mm 1 mps 754 mmHg 81%
01:00 +8°C° 0.1 mm 1 mps 754 mmHg 82%
02:00 +7°C° 0 mm 1 mps 754 mmHg 83%
03:00 +7°C° 0 mm 1 mps 753 mmHg 84%
04:00 +7°C° 0 mm 1 mps 753 mmHg 85%
05:00 +7°C° 0.1 mm 1 mps 753 mmHg 85%
06:00 +7°C° 0.1 mm 2 mps 753 mmHg 85%
07:00 +7°C° 0.1 mm 2 mps 754 mmHg 84%
08:00 +8°C° 0 mm 2 mps 754 mmHg 79%
09:00 +9°C° 0 mm 2 mps 753 mmHg 74%
10:00 +9°C° 0 mm 2 mps 753 mmHg 68%
11:00 +10°C° 0.1 mm 3 mps 753 mmHg 65%
12:00 +10°C° 0.1 mm 3 mps 753 mmHg 62%
13:00 +11°C° 0.1 mm 3 mps 753 mmHg 59%
14:00 +11°C° 0 mm 3 mps 753 mmHg 60%
15:00 +10°C° 0 mm 4 mps 753 mmHg 60%
16:00 +10°C° 0 mm 4 mps 753 mmHg 60%
17:00 +9°C° 0 mm 3 mps 753 mmHg 63%
18:00 +7°C° 0 mm 3 mps 753 mmHg 65%
19:00 +6°C° 0 mm 2 mps 753 mmHg 67%
20:00 +5°C° 0 mm 2 mps 754 mmHg 69%
21:00 +4°C° 0 mm 2 mps 754 mmHg 71%
22:00 +3°C° 0 mm 2 mps 754 mmHg 72%
23:00 +2°C° 0 mm 2 mps 754 mmHg 73%

26 April, Monday

Time Temperature Precipitation Wind Pressure Humidity
00:00 +2°C° 0 mm 2 mps 754 mmHg 74%
01:00 +1°C° 0 mm 2 mps 754 mmHg 75%
02:00 +1°C° 0 mm 2 mps 754 mmHg 74%
03:00 +1°C° 0 mm 2 mps 754 mmHg 74%
04:00 -1°C° 0 mm 2 mps 754 mmHg 74%
05:00 +3°C° 0 mm 1 mps 754 mmHg 68%
06:00 +5°C° 0 mm 1 mps 754 mmHg 61%
07:00 +6°C° 0 mm 0 mps 754 mmHg 54%
08:00 +8°C° 0 mm 1 mps 754 mmHg 49%
09:00 +10°C° 0 mm 1 mps 753 mmHg 45%
10:00 +11°C° 0 mm 1 mps 753 mmHg 40%
11:00 +10°C° 0 mm 2 mps 753 mmHg 40%
12:00 +10°C° 0 mm 2 mps 752 mmHg 40%
13:00 +11°C° 0 mm 3 mps 752 mmHg 40%
14:00 +12°C° 0 mm 2 mps 752 mmHg 42%
15:00 +10°C° 0 mm 2 mps 751 mmHg 44%
16:00 +10°C° 0 mm 2 mps 751 mmHg 46%
17:00 +9°C° 0 mm 2 mps 751 mmHg 52%
18:00 +8°C° 0 mm 1 mps 750 mmHg 58%
19:00 +6°C° 0 mm 1 mps 750 mmHg 64%
20:00 +6°C° 0 mm 1 mps 750 mmHg 66%
21:00 +5°C° 0 mm 1 mps 751 mmHg 67%
22:00 +5°C° 0 mm 1 mps 751 mmHg 68%
23:00 +3°C° 0 mm 2 mps 750 mmHg 70%

27 April, Tuesday

Time Temperature Precipitation Wind Pressure Humidity
00:00 +3°C° 0 mm 2 mps 750 mmHg 72%
01:00 +2°C° 0 mm 2 mps 750 mmHg 74%
02:00 +2°C° 0 mm 2 mps 749 mmHg 75%
03:00 +2°C° 0 mm 2 mps 749 mmHg 76%
04:00 +2°C° 0 mm 2 mps 749 mmHg 77%
05:00 +4°C° 0 mm 1 mps 749 mmHg 72%
06:00 +6°C° 0 mm 1 mps 749 mmHg 66%
07:00 +8°C° 0 mm 1 mps 748 mmHg 61%
08:00 +10°C° 0 mm 1 mps 748 mmHg 56%
09:00 +11°C° 0 mm 1 mps 747 mmHg 51%
10:00 +13°C° 0 mm 2 mps 747 mmHg 46%
11:00 +13°C° 0 mm 2 mps 746 mmHg 48%
12:00 +13°C° 0 mm 2 mps 746 mmHg 50%
13:00 +13°C° 0 mm 3 mps 745 mmHg 52%
14:00 +13°C° 0.4 mm 2 mps 745 mmHg 64%
15:00 +12°C° 0.4 mm 2 mps 745 mmHg 76%
16:00 +10°C° 0.4 mm 2 mps 744 mmHg 88%
17:00 +9°C° 0.2 mm 2 mps 744 mmHg 90%
18:00 +9°C° 0.2 mm 2 mps 744 mmHg 92%
19:00 +9°C° 0.2 mm 2 mps 743 mmHg 94%
20:00 +9°C° 0.1 mm 2 mps 743 mmHg 94%
21:00 +9°C° 0.1 mm 2 mps 743 mmHg 95%
22:00 +9°C° 0.1 mm 2 mps 742 mmHg 95%
23:00 +9°C° 0.1 mm 2 mps 742 mmHg 95%

28 April, Wednesday

Time Temperature Precipitation Wind Pressure Humidity
00:00 +9°C° 0.1 mm 2 mps 742 mmHg 95%
01:00 +10°C° 0.1 mm 1 mps 741 mmHg 95%
02:00 +9°C° 0.5 mm 2 mps 741 mmHg 95%
03:00 +9°C° 0.5 mm 2 mps 741 mmHg 95%
04:00 +9°C° 0.5 mm 2 mps 741 mmHg 96%
05:00 +9°C° 0.9 mm 2 mps 741 mmHg 95%
06:00 +10°C° 0.9 mm 2 mps 741 mmHg 95%
07:00 +10°C° 0.9 mm 3 mps 741 mmHg 94%
08:00 +11°C° 0.1 mm 3 mps 741 mmHg 94%
09:00 +11°C° 0.1 mm 3 mps 741 mmHg 94%
10:00 +12°C° 0.1 mm 3 mps 741 mmHg 93%
11:00 +12°C° 0.1 mm 3 mps 741 mmHg 92%
12:00 +13°C° 0.1 mm 3 mps 741 mmHg 91%
13:00 +13°C° 0.1 mm 3 mps 741 mmHg 90%
14:00 +13°C° 0.8 mm 3 mps 741 mmHg 91%
15:00 +13°C° 0.8 mm 3 mps 741 mmHg 93%
16:00 +13°C° 0.8 mm 3 mps 740 mmHg 95%
17:00 +12°C° 0.1 mm 3 mps 740 mmHg 96%
18:00 +13°C° 0.1 mm 2 mps 740 mmHg 96%
19:00 +12°C° 0.1 mm 2 mps 740 mmHg 97%
20:00 +12°C° 0.1 mm 3 mps 740 mmHg 97%
21:00 +12°C° 0.1 mm 3 mps 740 mmHg 97%
22:00 +12°C° 0.1 mm 3 mps 740 mmHg 97%
23:00 +12°C° 0.1 mm 3 mps 740 mmHg 97%
Show more